Regional Weather Roundup
Issued by NWS

Home | Current Version | Previous Version | Text Only | Print | Product List | Glossary Off
Versions: 1 2 3 4 5 6 7 8 9 10 11 12 13 14 15 16 17 18 19 20 21 22 23 24 25 26 27 28 29 30 31 32 33 34 35 36 37 38 39 40 41 42 43 44 45 46 47 48 49 50

000
ASUS43 KLOT 191703
RWRIL

ILLINOIS REGIONAL WEATHER ROUNDUP
NATIONAL WEATHER SERVICE CHICAGO/ROMEOVILLE IL
1200 PM CDT THU APR 19 2018

NOTE: "FAIR" INDICATES FEW OR NO CLOUDS BELOW 12,000 FEET WITH NO
SIGNIFICANT WEATHER AND/OR OBSTRUCTIONS TO VISIBILITY.

* THESE STATIONS ARE NOT UNDER NWS QUALITY CONTROL. THEY ALSO MAY NOT
  REPORT WEATHER SUCH AS PRECIPITATION OR FOG.

ILZ001-002-007-009-015-016-024-191800-
NORTHWEST ILLINOIS

CITY           SKY/WX    TMP DP  RH WIND       PRES   REMARKS
MOLINE         FAIR      48  29  47 NW8       30.42R
STERLING*      FAIR      46  32  58 N8        30.41R
SAVANNA*       FAIR      46  28  48 N9        30.42R
$$

ILZ003-004-008-010-011-017-018-191800-
NORTH CENTRAL ILLINOIS

CITY           SKY/WX    TMP DP  RH WIND       PRES   REMARKS
ROCKFORD       FAIR      46  27  47 N7        30.40R
FREEPORT*      FAIR      41  30  64 N7        30.41S
ROCHELLE*      FAIR      43  32  65 NW6       30.39R
DE KALB*       FAIR      42  32  67 N8        30.37R
PERU*          FAIR      47  32  55 N8        30.39R
$$

ILZ005-006-012>014-019>023-191800-
NORTHEAST ILLINOIS

CITY           SKY/WX    TMP DP  RH WIND       PRES   REMARKS
CHICAGO-OHARE  FAIR      48  27  44 N13       30.33R
CHICAGO-MIDWAY FAIR      48  26  42 N13       30.34R
AURORA         FAIR      44  35  70 NW12      30.35R
LANSING*       FAIR      44  29  56 N9G16     30.34R
JOLIET*        FAIR      47  31  54 NW5       30.35R
WAUKEGAN       FAIR      44  28  53 NW7       30.33R
DUPAGE AIRPORT FAIR      47  30  51 NW9       30.34R
KANKAKEE*      FAIR      47  31  53 NE14G20   30.34S
WHEELING       FAIR      47  30  51 NW13      30.35R
MORRIS*        FAIR      44  33  64 N7        30.35R
ROMEOVILLE*    FAIR      46  30  54 N7        30.34S
NORTHERLY ISL    N/A     42  26  53 N14         N/A
$$

LMZ740>746-191800-
SOUTHERN LAKE MICHIGAN

STATION/POSITION SKY/WX   TEMP    WIND        PRES    VSBY  WAVE
                          AIR SEA DIR/SP/G                  HT/PER
                          (F)     (DEG/KT/KT) (MB)    (MI)  (FT/S)
HARRISON CRIB              38     340/ 13/ 15   N/A
BURNHAM HARBOR             43      10/  9/ 13   N/A
CALUMET HARBOR             39     330/ 14/ 17 1026.8R
BURNS HARBOR               37     340/ 12/ 17 1027.8R
MICHIGAN CITY              38     310/ 17/ 18   N/A
$$

ILZ025>027-034>036-040-047-049-050-058-095>099-191800-
WEST-CENTRAL ILLINOIS

CITY           SKY/WX    TMP DP  RH WIND       PRES   REMARKS
QUINCY         MOSUNNY   49  30  48 N9        30.42R
GALESBURG*     FAIR      51  32  47 N9        30.41S
MACOMB*        SUNNY     48  29  48 NE6       30.43R
JACKSONVILLE*  MOSUNNY   47  32  55 N8        30.40R
PITTSFIELD*    MOSUNNY   48  33  55 NE7       30.42R
$$

ILZ028>032-037-038-041>044-048-051>054-059>061-191800-
CENTRAL ILLINOIS

CITY           SKY/WX    TMP DP  RH WIND       PRES   REMARKS
PONTIAC        FAIR      48  29  48 N8G16     30.37R
BLOOMINGTON    FAIR      48  30  49 N15G21    30.36R
DECATUR        FAIR      48  31  51 N12       30.35R
PEORIA         FAIR      48  31  51 N7G21     30.39R
LACON*         FAIR      46  30  55 N8        30.39R
LINCOLN*       FAIR      49  33  54 N12       30.37R
SPRINGFIELD    FAIR      51  32  48 NE12      30.38R
TAYLORVILLE    FAIR      46  31  55 N12G17    30.37S
$$

ILZ033-039-045-046-055>057-062-063-191800-
EAST-CENTRAL ILLINOIS

CITY           SKY/WX    TMP DP  RH WIND       PRES   REMARKS
CHAMPAIGN      FAIR      48  32  53 N18       30.33R
DANVILLE*      FAIR      47  33  57 N14G22    30.30R
RANTOUL*       FAIR      49  33  52 N12G21    30.33S
MATTOON        FAIR      46  31  55 NE17G24   30.33R
PARIS*         PTSUNNY   47  34  60 NE12      30.33R
$$

ILZ079-100>102-191800-
SOUTHWEST ILLINOIS

CITY           SKY/WX    TMP DP  RH WIND       PRES   REMARKS
ALTON          CLOUDY    45  34  65 N6        30.41R
BELLEVILLE     CLOUDY    45  31  58 N9        30.39
CAHOKIA*       CLOUDY    44  31  60 N12       30.42R
SPARTA*        CLOUDY    42  33  71 N8        30.41R
$$

ILZ064>066-069>071-074>076-080>082-084>086-088>090-092>094-191800-
SOUTH-CENTRAL ILLINOIS

CITY           SKY/WX    TMP DP  RH WIND       PRES   REMARKS
CARBONDALE     CLOUDY    44  31  60 N16G23    30.38R
CAIRO*         CLOUDY    45  29  54 N14G20    30.37R
EFFINGHAM*     CLOUDY    45  34  65 NW12      30.37R
MARION         PTSUNNY   43  28  56 N12       30.37R
MT. VERNON     CLOUDY    44  32  62 N8        30.38R
CENTRALIA*     CLOUDY    45  34  64 N10       30.37R
SALEM*         CLOUDY    47  32  57 N14       30.36R
METROPOLIS*    CLOUDY    45  29  54 NW10G16   30.37R
$$

ILZ067-068-072-073-078-083-087-091-191800-
SOUTHEAST ILLINOIS

CITY           SKY/WX    TMP DP  RH WIND       PRES   REMARKS
LAWRENCEVILLE  PTSUNNY   47  32  56 N12       30.34R
FLORA*         CLOUDY    45  34  63 N13       30.36R
FAIRFIELD*     CLOUDY    44  32  63 N7        30.35R
HARRISBURG*    CLOUDY    44  32  64 N13       30.37R
ROBINSON*      PTSUNNY   46  33  61 N14       30.34R
CARMI*         CLOUDY    43  34  69 NW15      30.35R
$$

ABBREVIATIONS USED IN REMARKS
   TC - TEMPERATURE IN CELSIUS
  WCI - WIND CHILL INDEX
   HX - HEAT INDEX
  VSB - VISIBILITY
$$





USA.gov is the U.S. government's official web portal to all federal, state and local government web resources and services.